Chris Hadfield Airport
CYZR : rendu visible

Aérodrome :











RETROUVEZ-NOUS SUR...

 
LOGIN :

S'inscrire | Disclaimer

   EN    FR    IT 

 









Légende :    VFR   VFR Marginal   IFR   IFR Intensif   IFR Très Intensif
Visi : 
Plafond : 
>= 8 km
>= 3000ft
5 à 8 km
1000 à 3000 ft
1500m à 5 km
500 à 1000 ft
800 à 1500m
200 à 500 ft
< 800m
< 200 ft
Symboles :   Orages  Brouillard  Fortes neiges  Fortes précipitations  Vent > 20 kt






- Altitude de l'aérodrome : 594 ft
- Code IATA : YZR


CYZR - Chris Hadfield

DERNIER METAR :
  • 242300Z AUTO 20012G21KT 9SM CLR 28/20 A2990 RMK SLP123 DENSITY ALT 2200FT

METARs EXPIRÉS :
  • 242200Z AUTO 22016G24KT 9SM CLR 28/20 A2990 RMK SLP125 DENSITY ALT 2200FT
  • 242100Z AUTO 20016G23KT 9SM CLR 29/19 A2991 RMK SLP127 DENSITY ALT 2300FT

TAF TAF CYZR
Valide du 24 à 20h jusqu'au 25 à 02h UTC


241938Z 2420/2502 20012G22KT P6SM FEW050
TEMPO 2420/2423 BKN050
FM242300 25010KT P6SM SCT030 RMK FCST BASED ON AUTO OBS. NXT FCST WILL BE ISSUED AT 250745Z
FIR CZYZ / Amérique du Nord



MET'MAP, la Météo Aéronautique d'un coup d'oeil ! - Copyright ORBIFLY Décembre 2007 - Disclaimer

ORBIFLY MET'MAP TEAM :

Programmation & Développement : Alexandra Zaïnal
Sur une idée originale de : Baudouin d'Aumeries
Assistance à la programmation : Marc-Olivier Méhu
Soutien technique & logistique : Manuel Goepfert

Contact : metmap@orbifly.com




SOURCES & CREDITS :

   NOAA       Earth
Advisory